Weather reports worldwide

Advertisment
Huelva, Spain (8383): temperature & dewpoint: 16.06.2018 15:00:00 - 22.06.2018 15:00:00 (CEST)Huelva, Spain (8383): wind speed: 16.06.2018 15:00:00 - 22.06.2018 15:00:00 (CEST)Huelva, Spain (8383): wind direction: 16.06.2018 15:00:00 - 22.06.2018 15:00:00 (CEST)Huelva, Spain (8383): reduced air pressure: 16.06.2018 15:00:00 - 22.06.2018 15:00:00 (CEST)Huelva, Spain (8383): visibility: 16.06.2018 15:00:00 - 22.06.2018 15:00:00 (CEST)Huelva, Spain (8383): precipitation: 16.06.2018 15:00:00 - 22.06.2018 15:00:00 (CEST)
Date & Time tt [°C] td [°C] ff [km/h] ff [kn] dd ppp [hPa] vv [km] rr [mm]
22.06.2018 15:00:00 - - - - - - - -
22.06.2018 14:00:00 27,5 18,5 13 7 W 1016,5 10 -
22.06.2018 13:00:00 26,2 17,8 9 5 SW 1016,8 17 0,0
22.06.2018 12:00:00 24,6 17,8 4 2 E 1017,2 18 0,0
22.06.2018 11:00:00 23,0 19,2 5 3 WNW 1017,7 8 -
22.06.2018 10:00:00 21,3 19,2 5 3 WNW 1017,7 11 0,0
22.06.2018 09:00:00 20,2 18,9 4 2 NNW 1016,9 8 0,0
22.06.2018 08:00:00 19,9 18,6 8 4 NE 1016,4 9 -
22.06.2018 07:00:00 19,4 18,1 4 2 SW 1016,9 7 0,6
22.06.2018 06:00:00 19,7 16,9 2 1 NNW 1017,0 17 0,0
22.06.2018 05:00:00 20,0 16,6 5 3 NE 1016,6 18 -
22.06.2018 04:00:00 19,6 16,8 5 3 NNE 1017,1 16 0,0
22.06.2018 03:00:00 19,7 16,0 9 5 NE 1017,1 18 0,0
22.06.2018 02:00:00 20,6 16,0 5 3 NE 1017,4 20 -
22.06.2018 01:00:00 20,8 15,1 4 2 SSE 1017,6 20 0,0
22.06.2018 00:00:00 21,6 15,2 8 4 W 1017,4 20 0,0
21.06.2018 23:00:00 21,8 15,9 8 4 WSW 1017,0 20 -
21.06.2018 22:00:00 22,5 16,3 9 5 WNW 1016,6 20 0,0
21.06.2018 21:00:00 23,4 16,2 13 7 WSW 1016,3 20 0,0
21.06.2018 20:00:00 24,0 16,8 15 8 SW 1016,0 20 -
21.06.2018 19:00:00 25,2 17,1 18 10 SW 1015,8 20 0,0
21.06.2018 18:00:00 24,5 16,7 21 11 SW 1015,8 20 0,0
21.06.2018 17:00:00 26,2 17,3 16 9 SW 1015,8 20 -
21.06.2018 16:00:00 27,3 17,2 21 11 SSW 1015,9 20 0,0
21.06.2018 15:00:00 28,8 18,0 18 10 S 1016,2 20 0,0
21.06.2018 14:00:00 28,9 18,4 16 9 S 1016,5 12 -
21.06.2018 13:00:00 28,7 17,6 11 6 S 1016,8 20 0,0
21.06.2018 12:00:00 27,7 17,5 5 3 SSW 1016,9 20 0,0
21.06.2018 11:00:00 25,0 16,7 9 5 WSW 1016,7 20 -
21.06.2018 10:00:00 23,6 17,1 9 5 SW 1016,9 20 0,0
21.06.2018 09:00:00 21,6 16,8 8 4 WNW 1015,9 20 0,0
21.06.2018 08:00:00 18,8 16,4 5 3 NNE 1016,8 16 -
21.06.2018 07:00:00 19,0 15,9 4 2 NE 1016,4 18 0,0
21.06.2018 06:00:00 18,9 16,5 4 2 NNW 1016,3 17 0,0
21.06.2018 05:00:00 20,8 16,0 8 4 N 1015,9 20 -
21.06.2018 04:00:00 20,4 16,8 5 3 N 1016,1 19 0,0
21.06.2018 03:00:00 21,7 15,8 5 3 NW 1016,5 20 0,0
21.06.2018 02:00:00 22,1 15,9 11 6 WSW 1016,9 20 -
21.06.2018 01:00:00 21,8 16,1 9 5 WSW 1016,8 20 0,0
21.06.2018 00:00:00 21,8 16,3 13 7 W 1016,7 20 0,0
20.06.2018 23:00:00 22,0 16,3 11 6 W 1016,2 19 -
20.06.2018 22:00:00 22,8 16,3 16 9 WSW 1015,6 20 0,0
20.06.2018 21:00:00 23,4 16,2 18 10 WSW 1015,3 20 0,0
20.06.2018 20:00:00 25,9 16,7 9 5 W 1015,0 20 -
20.06.2018 19:00:00 26,6 16,5 18 10 SW 1015,1 20 0,0
20.06.2018 18:00:00 27,0 16,9 13 7 WSW 1015,5 20 0,0
20.06.2018 17:00:00 25,1 16,8 16 9 SW 1016,2 20 -
20.06.2018 16:00:00 26,3 17,4 26 14 WSW 1016,8 20 0,0
20.06.2018 15:00:00 27,9 17,7 11 6 SW 1016,9 20 0,0
20.06.2018 14:00:00 26,4 16,6 4 2 SW 1017,2 12 -
20.06.2018 13:00:00 24,6 16,8 11 6 SSW 1017,9 20 0,0
20.06.2018 12:00:00 24,4 16,6 13 7 SSW 1018,2 20 0,0
20.06.2018 11:00:00 24,3 16,0 8 4 WSW 1017,4 11 -
20.06.2018 10:00:00 22,8 15,1 4 2 N 1017,0 20 0,0
20.06.2018 09:00:00 21,2 15,1 9 5 NW 1017,0 20 0,0
20.06.2018 08:00:00 17,3 13,8 4 2 SW 1017,3 10 -
20.06.2018 07:00:00 18,6 13,7 4 2 NE 1016,4 20 0,0
20.06.2018 06:00:00 18,7 14,4 4 2 NNE 1016,1 20 0,0
20.06.2018 05:00:00 18,6 14,3 4 2 ENE 1016,1 20 -
20.06.2018 04:00:00 20,1 14,0 8 4 NNE 1016,1 20 0,0
20.06.2018 03:00:00 20,9 14,3 5 3 NW 1016,4 20 0,0
20.06.2018 02:00:00 20,7 14,3 8 4 WSW 1016,7 20 -
20.06.2018 01:00:00 22,4 14,3 5 3 NW 1016,4 20 0,0
20.06.2018 00:00:00 23,1 14,4 8 4 N 1016,2 20 0,0
19.06.2018 23:00:00 23,3 15,1 8 4 WNW 1016,0 20 -
19.06.2018 22:00:00 24,3 15,0 9 5 WSW 1015,4 20 0,0
19.06.2018 21:00:00 25,6 15,0 11 6 SSW 1015,5 20 0,0
19.06.2018 20:00:00 27,2 15,6 15 8 SW 1015,4 20 -
19.06.2018 19:00:00 28,7 15,6 18 10 SSW 1015,3 20 0,0
19.06.2018 18:00:00 30,2 15,1 16 9 SSW 1015,6 20 0,0
19.06.2018 17:00:00 30,9 14,5 18 10 S 1015,9 20 -
19.06.2018 16:00:00 31,4 15,0 16 9 SSW 1016,4 20 0,0
19.06.2018 15:00:00 31,6 15,1 16 9 SSW 1016,7 20 0,0
19.06.2018 14:00:00 31,1 16,3 11 6 S 1017,2 15 -
19.06.2018 13:00:00 29,9 14,8 11 6 ESE 1017,8 20 0,0
19.06.2018 12:00:00 27,5 16,1 4 2 ESE 1018,0 20 0,0
19.06.2018 11:00:00 24,9 16,9 5 3 E 1018,5 9 -
19.06.2018 10:00:00 22,5 17,8 4 2 NNE 1018,7 12 0,0
19.06.2018 09:00:00 20,4 17,6 5 3 ENE 1018,4 8 0,0
19.06.2018 08:00:00 18,3 16,8 5 3 NE 1018,2 4,0 -
19.06.2018 07:00:00 18,3 17,0 5 3 NE 1018,1 7 0,0
19.06.2018 06:00:00 18,9 17,2 5 3 SE 1017,9 8 0,0
19.06.2018 05:00:00 19,1 17,4 5 3 ESE 1018,0 9 -
19.06.2018 04:00:00 19,5 17,5 8 4 ESE 1018,1 10 0,0
19.06.2018 03:00:00 20,0 16,4 5 3 SE 1018,2 17 0,0
19.06.2018 02:00:00 20,3 16,1 2 1 ESE 1018,0 17 -
19.06.2018 01:00:00 21,6 15,9 5 3 ENE 1018,0 19 0,0
19.06.2018 00:00:00 22,2 15,1 5 3 NNE 1018,1 20 0,0
18.06.2018 23:00:00 22,8 15,1 4 2 NE 1017,8 20 -
18.06.2018 22:00:00 23,5 15,3 5 3 S 1017,4 20 0,0
18.06.2018 21:00:00 23,8 15,8 9 5 SSW 1016,9 20 0,0
18.06.2018 20:00:00 24,6 16,3 15 8 SSW 1016,7 20 -
18.06.2018 19:00:00 24,8 16,2 21 11 SSW 1016,6 20 0,0
18.06.2018 18:00:00 26,9 16,8 22 12 SSW 1016,8 20 0,0
18.06.2018 17:00:00 28,1 16,4 24 13 S 1016,8 20 -
18.06.2018 16:00:00 30,9 16,5 29 16 SSW 1016,4 19 0,0
18.06.2018 15:00:00 33,2 15,2 21 11 S 1016,4 20 0,0
18.06.2018 14:00:00 34,5 15,4 9 5 SSE 1016,3 15 -
18.06.2018 13:00:00 33,2 14,3 5 3 NNE 1017,0 20 0,0
18.06.2018 12:00:00 31,2 13,5 9 5 E 1017,2 20 0,0
18.06.2018 11:00:00 29,0 13,6 9 5 E 1017,4 12 -
18.06.2018 10:00:00 26,6 12,6 8 4 ENE 1017,6 20 0,0
18.06.2018 09:00:00 23,1 14,1 8 4 NE 1017,5 20 0,0
18.06.2018 08:00:00 19,8 13,3 5 3 NE 1017,4 10 -
18.06.2018 07:00:00 19,5 12,7 8 4 NE 1017,4 20 0,0
18.06.2018 06:00:00 19,7 12,9 5 3 NNE 1017,2 20 0,0
18.06.2018 05:00:00 21,3 13,2 4 2 NNE 1017,0 20 -
18.06.2018 04:00:00 22,1 14,0 4 2 SSW 1017,1 20 0,0
18.06.2018 03:00:00 22,8 14,1 11 6 SSW 1017,5 20 0,0
18.06.2018 02:00:00 23,0 12,9 9 5 S 1017,5 20 -
18.06.2018 01:00:00 23,5 12,2 4 2 NE 1017,4 20 0,0
18.06.2018 00:00:00 24,8 9,5 5 3 SW 1017,6 20 0,0
17.06.2018 23:00:00 25,6 10,2 9 5 W 1017,2 20 -
17.06.2018 22:00:00 26,7 10,4 13 7 WSW 1017,0 20 0,0
17.06.2018 21:00:00 28,0 11,5 13 7 SW 1016,5 20 0,0
17.06.2018 20:00:00 30,4 12,8 16 9 SW 1016,2 20 -
17.06.2018 19:00:00 32,8 12,4 21 11 SSW 1016,1 20 0,0
17.06.2018 18:00:00 33,6 13,6 11 6 WSW 1016,3 20 0,0
17.06.2018 17:00:00 33,2 13,3 15 8 SW 1016,7 20 -
17.06.2018 16:00:00 33,1 13,2 9 5 WSW 1017,2 20 0,0
17.06.2018 15:00:00 31,5 12,3 8 4 SW 1017,6 20 0,0
17.06.2018 14:00:00 29,8 13,1 8 4 WSW 1017,8 20 -
17.06.2018 13:00:00 28,8 12,2 5 3 WSW 1017,7 20 0,0
17.06.2018 12:00:00 28,2 13,7 9 5 S 1017,8 20 0,0
17.06.2018 11:00:00 26,6 14,4 8 4 S 1017,6 20 -
17.06.2018 10:00:00 23,9 15,1 5 3 SSE 1017,4 11 0,0
17.06.2018 09:00:00 20,9 15,0 2 1 E 1017,0 20 0,0
17.06.2018 08:00:00 18,0 12,7 5 3 NE 1016,6 20 -
17.06.2018 07:00:00 17,5 12,8 5 3 NNE 1016,1 19 0,0
17.06.2018 06:00:00 18,1 15,0 4 2 NE 1015,7 19 0,0
17.06.2018 05:00:00 18,4 14,5 2 1 E 1015,6 20 -
17.06.2018 04:00:00 19,0 14,7 2 1 NE 1015,4 20 0,0
17.06.2018 03:00:00 18,9 12,9 2 1 SW 1015,2 20 0,0
17.06.2018 02:00:00 20,1 12,6 5 3 NNW 1014,8 20 -
17.06.2018 01:00:00 20,5 12,7 5 3 ENE 1014,9 20 0,0
17.06.2018 00:00:00 21,1 13,5 4 2 NNE 1015,1 20 0,0
16.06.2018 23:00:00 22,3 14,4 4 2 ESE 1014,5 20 -
16.06.2018 22:00:00 24,0 10,6 8 4 SW 1013,7 20 0,0
16.06.2018 21:00:00 25,2 11,7 9 5 WSW 1013,6 20 0,0
16.06.2018 20:00:00 25,4 12,6 16 9 SW 1013,5 20 -
16.06.2018 19:00:00 26,4 13,2 21 11 SSW 1013,5 20 0,0
16.06.2018 18:00:00 27,7 14,3 16 9 SW 1013,5 20 0,0
16.06.2018 17:00:00 30,5 13,7 16 9 SSW 1013,3 20 -
16.06.2018 16:00:00 30,1 14,6 21 11 S 1013,6 20 0,0
16.06.2018 15:00:00 31,0 15,0 13 7 S 1013,8 14 0,0

tt = temperature
td = dewpoint
ff = wind speed
dd = wind direction
ppp = reduced air pressure
vv = visibility
rr = precipitation

Next stations